Weather History for Fort Huachuca, AZ

Change the Weather History Date:

Friday, October 5, 2012

  Actual Average (KFHU) Record (KFHU)
Temperature  
Mean Temperature 68 °F -  
Max Temperature 82 °F 81 °F 90 °F (1982)
Min Temperature 53 °F 59 °F 48 °F (1984)
Cooling Degree Days 2    
Growing Degree Days 18 (Base 50)    
Moisture  
Dew Point 32 °F    
Average Humidity 28    
Maximum Humidity 48    
Minimum Humidity 14    
Precipitation  
Precipitation 0.00 in - - ()
Sea Level Pressure  
Sea Level Pressure 29.95 in    
Wind  
Wind Speed 11 mph (WSW)    
Max Wind Speed 23 mph    
Max Gust Speed 31 mph    
Averages and records for this station are not official NWS values.
T = Trace of Precipitation, MM = Missing Value Source: NWS Daily Summary

Daily Weather History Graph

Daily Weather History Graph

Search for Another Location

Airport:

Trip Planner

Search our weather history database for the weather conditions in past years. The results will help you decide how hot, cold, wet, or windy it might be!

Date:

Astronomy

Oct. 05, 2012 Rise Set
Actual Time 6:18 AM MST 6:00 PM MST
Civil Twilight 5:54 AM MST 6:25 PM MST
Nautical Twilight 5:25 AM MST 6:53 PM MST
Astronomical Twilight 4:57 AM MST 7:21 PM MST
Moon 9:44 PM MST (10/5) 11:11 AM MST (10/5)
Length of Visible Light 12h 31m
Length of Day
11h 42m
Waning Gibbous, 73% of the Moon is Illuminated
Oct 5
Waning Gibbous
Oct 8
Last Quarter
Oct 15
New
Oct 21
First Quarter
Oct 29
Full

Hourly Weather History & Observations

Time (MST) Temp. Dew Point Humidity Pressure Visibility Wind Dir Wind Speed Gust Speed Precip Events Conditions
12:56 AM 61.0 °F 37.0 °F 41% 29.97 in - West 11.5 mph - N/A   Clear
1:56 AM 62.1 °F 36.0 °F 38% 29.96 in - SW 12.7 mph - N/A   Clear
2:56 AM 57.9 °F 35.1 °F 42% 29.96 in - WSW 11.5 mph - N/A   Clear
3:56 AM 60.1 °F 33.1 °F 36% 29.95 in - SW 8.1 mph - N/A   Clear
4:56 AM 53.1 °F 34.0 °F 48% 29.97 in - West 8.1 mph - N/A   Clear
5:56 AM 55.9 °F 32.0 °F 40% 29.99 in - WSW 5.8 mph - N/A   Clear
6:56 AM 57.0 °F 32.0 °F 39% 30.01 in - SW 9.2 mph - N/A   Clear
7:56 AM 69.1 °F 34.0 °F 27% 30.24 in - WSW 9.2 mph - N/A   Clear
8:57 AM 73.0 °F 32.0 °F 22% 29.99 in - WSW 11.5 mph 17.3 mph N/A   Unknown
10:56 AM 78.1 °F 30.0 °F 17% 29.97 in - West 17.3 mph 23.0 mph N/A   Unknown
11:56 AM 80.1 °F 30.0 °F 16% 29.94 in - West 18.4 mph 23.0 mph N/A   Clear
12:56 PM 82.0 °F 30.0 °F 15% 29.91 in - West 23.0 mph 31.1 mph N/A   Clear
2:56 PM 82.0 °F 30.9 °F 16% 29.87 in - West 9.2 mph - N/A   Clear
3:56 PM 82.0 °F 28.9 °F 14% 29.87 in - WSW 13.8 mph - N/A   Clear
4:56 PM 80.1 °F 27.0 °F 14% 29.87 in - SW 11.5 mph 20.7 mph N/A   Clear
5:56 PM 75.0 °F 30.0 °F 19% 29.89 in - WSW 9.2 mph - N/A   Clear
6:56 PM 70.0 °F 32.0 °F 25% 29.92 in - SSW 8.1 mph - N/A   Unknown
7:56 PM 66.9 °F 33.1 °F 28% 29.92 in - SW 8.1 mph - N/A   Clear
9:56 PM 64.9 °F 33.1 °F 31% 29.91 in - SW 9.2 mph - N/A   Clear
10:56 PM 66.0 °F 32.0 °F 28% 29.89 in - SW 11.5 mph - N/A   Clear
11:56 PM 64.9 °F 33.1 °F 31% 29.90 in - SSW 9.2 mph - N/A   Clear